SHIELDS 1

Last updated on Mon Nov 03 2025 00:04:05 GMT+0000 (Coordinated Universal Time)

1 43850U 18104B 25306.45864113 .00076790 00000+0 50492-3 0 9993 2 43850 85.0059 292.9353 0000940 52.6167 307.5189 15.75442892384298
UTC large
Height (km)
Speed (km/s)
/
Latitude / Longitude
Inclination (degrees)
Orbital Period (minutes)
Azimuth
Elevation
Range (km)
Doppler Factor

Next 0 passes for location: London (51.5072 / 0.1276)

Sorry there are no passes over London.